IRA966T FNLU-FNSA

Flight info

Callsign IRA966T
Flight time 1h 11m
Altitude 31000
Route AVOVA DCT DEPAN DCT MA DCT KILBI DCT AXUGO DCT G130J DCT G130E
Aircraft B38M/M-SDE1FGHILORVWXY/HB1

Departure

Time 2026-04-25 23:34
Airport Quatro de Fevereiro International Airport (FNLU)

Arrival

Time 2026-04-26 00:45
Airport Saurimo Airport (FNSA)
Time Latitude Longitude Altitude Speed Heading
2026-04-25 23:13 -8.84885 13.23572 243 ft 0 kts 337°
2026-04-25 23:29 -8.84884 13.23572 243 ft 1 kts 336°
2026-04-25 23:29 -8.84878 13.23565 243 ft 1 kts 303°
2026-04-25 23:30 -8.84879 13.23557 243 ft 1 kts 253°
2026-04-25 23:30 -8.84883 13.23552 243 ft 2 kts 231°
2026-04-25 23:30 -8.84894 13.23538 243 ft 4 kts 231°
2026-04-25 23:30 -8.84915 13.23513 243 ft 5 kts 224°
2026-04-25 23:31 -8.84928 13.23509 243 ft 1 kts 170°
2026-04-25 23:31 -8.84944 13.23512 243 ft 3 kts 170°
2026-04-25 23:31 -8.84975 13.23518 243 ft 6 kts 170°
2026-04-25 23:31 -8.85020 13.23531 243 ft 8 kts 160°
2026-04-25 23:32 -8.85078 13.23554 242 ft 10 kts 156°
2026-04-25 23:32 -8.85144 13.23597 242 ft 12 kts 135°
2026-04-25 23:32 -8.85208 13.23661 242 ft 14 kts 135°
2026-04-25 23:32 -8.85279 13.23731 243 ft 15 kts 135°
2026-04-25 23:33 -8.85363 13.23802 243 ft 16 kts 157°
2026-04-25 23:33 -8.85461 13.23762 243 ft 17 kts 221°
2026-04-25 23:33 -8.85647 13.23568 245 ft 76 kts 225°
2026-04-25 23:33 -8.86195 13.22988 243 ft 149 kts 226°
2026-04-25 23:34 -8.87016 13.22113 400 ft 194 kts 225°
2026-04-25 23:34 -8.88134 13.21230 942 ft 205 kts 206°
2026-04-25 23:34 -8.89594 13.20912 1372 ft 235 kts 178°
2026-04-25 23:34 -8.91300 13.21302 1883 ft 268 kts 157°
2026-04-25 23:35 -8.92996 13.22276 2339 ft 297 kts 140°
2026-04-25 23:35 -8.94170 13.24045 3025 ft 309 kts 105°
2026-04-25 23:35 -8.94183 13.26148 3703 ft 294 kts 74°
2026-04-25 23:35 -8.93280 13.27892 3990 ft 276 kts 47°
2026-04-25 23:36 -8.91745 13.28990 5016 ft 265 kts 29°
2026-04-25 23:36 -8.90334 13.30155 6211 ft 263 kts 53°
2026-04-25 23:36 -8.89589 13.31842 7177 ft 268 kts 81°
2026-04-25 23:36 -8.89605 13.33722 8109 ft 271 kts 96°
2026-04-25 23:37 -8.89820 13.35634 8999 ft 276 kts 97°
2026-04-25 23:37 -8.90100 13.37573 9777 ft 283 kts 99°
2026-04-25 23:37 -8.90432 13.39541 9993 ft 283 kts 100°
2026-04-25 23:37 -8.90793 13.41511 10296 ft 286 kts 101°
2026-04-25 23:38 -8.91167 13.43478 11222 ft 285 kts 101°
2026-04-25 23:38 -8.91552 13.45458 12044 ft 290 kts 101°
2026-04-25 23:38 -8.91957 13.47508 12527 ft 307 kts 101°
2026-04-25 23:38 -8.92391 13.49683 12853 ft 327 kts 101°
2026-04-25 23:39 -8.92857 13.52011 13142 ft 347 kts 101°
2026-04-25 23:39 -8.93349 13.54465 13399 ft 365 kts 101°
2026-04-25 23:39 -8.93863 13.57027 13778 ft 378 kts 101°
2026-04-25 23:39 -8.94389 13.59648 14472 ft 380 kts 101°
2026-04-25 23:40 -8.94917 13.62279 15095 ft 385 kts 101°
2026-04-25 23:40 -8.95451 13.64943 15729 ft 388 kts 101°
2026-04-25 23:40 -8.95989 13.67628 16338 ft 391 kts 101°
2026-04-25 23:40 -8.96531 13.70333 16930 ft 395 kts 101°
2026-04-25 23:41 -8.97079 13.73069 17503 ft 398 kts 101°
2026-04-25 23:41 -8.97630 13.75821 18061 ft 401 kts 101°
2026-04-25 23:41 -8.98178 13.78562 18594 ft 405 kts 101°
2026-04-25 23:41 -8.98745 13.81396 19128 ft 408 kts 101°
2026-04-25 23:42 -8.99303 13.84183 19632 ft 411 kts 101°
2026-04-25 23:42 -8.99871 13.87026 20138 ft 414 kts 101°
2026-04-25 23:42 -9.00444 13.89894 20631 ft 417 kts 101°
2026-04-25 23:42 -9.01019 13.92776 21115 ft 420 kts 101°
2026-04-25 23:43 -9.01600 13.95684 21588 ft 423 kts 101°
2026-04-25 23:43 -9.02182 13.98604 22044 ft 426 kts 101°
2026-04-25 23:43 -9.02770 14.01552 22490 ft 428 kts 101°
2026-04-25 23:43 -9.03362 14.04517 22922 ft 431 kts 101°
2026-04-25 23:44 -9.03956 14.07501 23348 ft 434 kts 101°
2026-04-25 23:44 -9.04554 14.10502 23750 ft 437 kts 101°
2026-04-25 23:44 -9.05155 14.13520 24154 ft 439 kts 101°
2026-04-25 23:44 -9.05760 14.16562 24538 ft 442 kts 101°
2026-04-25 23:45 -9.06368 14.19617 24915 ft 445 kts 101°
2026-04-25 23:45 -9.06978 14.22685 25282 ft 447 kts 101°
2026-04-25 23:45 -9.07591 14.25771 25627 ft 450 kts 101°
2026-04-25 23:45 -9.08210 14.28886 25985 ft 452 kts 101°
2026-04-25 23:46 -9.08831 14.32013 26332 ft 454 kts 101°
2026-04-25 23:46 -9.09453 14.35150 26722 ft 455 kts 101°
2026-04-25 23:46 -9.10075 14.38282 27171 ft 454 kts 101°
2026-04-25 23:46 -9.10696 14.41417 27610 ft 454 kts 101°
2026-04-25 23:47 -9.11315 14.44539 28048 ft 453 kts 101°
2026-04-25 23:47 -9.11930 14.47644 28469 ft 452 kts 101°
2026-04-25 23:47 -9.12548 14.50764 28859 ft 452 kts 101°
2026-04-25 23:47 -9.13165 14.53881 29253 ft 452 kts 101°
2026-04-25 23:48 -9.13814 14.56993 29625 ft 451 kts 103°
2026-04-25 23:48 -9.14502 14.60086 30021 ft 451 kts 102°
2026-04-25 23:48 -9.15182 14.63177 30411 ft 450 kts 102°
2026-04-25 23:48 -9.15858 14.66265 30798 ft 449 kts 102°
2026-04-25 23:49 -9.16524 14.69311 30998 ft 450 kts 102°
2026-04-25 23:49 -9.17869 14.75463 31005 ft 447 kts 102°
2026-04-25 23:50 -9.19210 14.81603 31000 ft 447 kts 102°
2026-04-25 23:50 -9.20552 14.87756 30999 ft 448 kts 102°
2026-04-25 23:51 -9.21896 14.93917 31000 ft 450 kts 102°
2026-04-25 23:51 -9.23241 15.00095 31002 ft 450 kts 102°
2026-04-25 23:52 -9.24585 15.06271 31000 ft 449 kts 102°
2026-04-25 23:52 -9.25927 15.12441 31000 ft 449 kts 102°
2026-04-25 23:53 -9.27265 15.18602 30997 ft 448 kts 102°
2026-04-25 23:53 -9.28604 15.24762 30997 ft 448 kts 102°
2026-04-25 23:54 -9.29942 15.30926 30997 ft 448 kts 102°
2026-04-25 23:54 -9.31279 15.37089 31001 ft 448 kts 102°
2026-04-25 23:55 -9.32617 15.43259 31002 ft 449 kts 102°
2026-04-25 23:55 -9.33950 15.49415 31001 ft 449 kts 102°
2026-04-25 23:56 -9.35287 15.55594 31000 ft 450 kts 102°
2026-04-25 23:56 -9.36623 15.61774 30998 ft 450 kts 102°
2026-04-25 23:57 -9.37961 15.67968 30999 ft 450 kts 102°
2026-04-25 23:57 -9.39300 15.74169 30998 ft 450 kts 102°
2026-04-25 23:58 -9.40635 15.80360 31001 ft 450 kts 102°
2026-04-25 23:58 -9.41970 15.86558 31001 ft 450 kts 102°
2026-04-25 23:59 -9.43306 15.92762 31000 ft 450 kts 102°
2026-04-25 23:59 -9.44639 15.98961 31001 ft 451 kts 102°
2026-04-26 00:00 -9.45971 16.05162 30999 ft 451 kts 102°
2026-04-26 00:00 -9.47303 16.11365 31001 ft 451 kts 102°
2026-04-26 00:01 -9.48634 16.17572 31001 ft 451 kts 102°
2026-04-26 00:01 -9.49954 16.23730 30998 ft 451 kts 102°
2026-04-26 00:02 -9.51283 16.29938 31001 ft 451 kts 102°
2026-04-26 00:02 -9.52610 16.36189 31000 ft 451 kts 100°
2026-04-26 00:03 -9.52983 16.42479 30985 ft 451 kts 92°
2026-04-26 00:03 -9.53272 16.48824 31001 ft 451 kts 92°
2026-04-26 00:04 -9.53557 16.55166 31001 ft 451 kts 92°
2026-04-26 00:04 -9.53841 16.61517 30998 ft 451 kts 92°
2026-04-26 00:05 -9.54124 16.67860 31000 ft 451 kts 92°
2026-04-26 00:05 -9.54406 16.74205 31000 ft 451 kts 92°
2026-04-26 00:06 -9.54687 16.80556 31000 ft 451 kts 92°
2026-04-26 00:06 -9.54966 16.86902 31000 ft 451 kts 92°
2026-04-26 00:07 -9.55245 16.93252 31000 ft 451 kts 92°
2026-04-26 00:07 -9.55475 16.98530 31000 ft 451 kts 92°
2026-04-26 00:08 -9.55751 17.04878 31001 ft 451 kts 92°
2026-04-26 00:08 -9.56026 17.11223 31000 ft 451 kts 92°
2026-04-26 00:09 -9.56301 17.17577 31000 ft 451 kts 92°
2026-04-26 00:09 -9.56574 17.23929 31001 ft 451 kts 92°
2026-04-26 00:10 -9.56845 17.30265 30997 ft 449 kts 92°
2026-04-26 00:10 -9.57114 17.36577 31001 ft 448 kts 92°
2026-04-26 00:11 -9.57381 17.42887 31000 ft 448 kts 92°
2026-04-26 00:11 -9.57648 17.49199 31000 ft 448 kts 92°
2026-04-26 00:12 -9.57914 17.55512 31000 ft 449 kts 92°
2026-04-26 00:12 -9.58178 17.61829 31000 ft 449 kts 92°
2026-04-26 00:13 -9.58441 17.68141 31000 ft 449 kts 92°
2026-04-26 00:13 -9.58704 17.74462 31000 ft 449 kts 92°
2026-04-26 00:14 -9.58966 17.80793 30737 ft 449 kts 92°
2026-04-26 00:14 -9.59096 17.83953 30489 ft 449 kts 92°
2026-04-26 00:14 -9.59226 17.87109 30237 ft 449 kts 92°
2026-04-26 00:14 -9.59356 17.90279 29995 ft 450 kts 92°
2026-04-26 00:15 -9.59486 17.93449 29753 ft 448 kts 92°
2026-04-26 00:15 -9.59614 17.96589 29500 ft 446 kts 92°
2026-04-26 00:15 -9.59742 17.99726 29247 ft 446 kts 92°
2026-04-26 00:15 -9.59869 18.02870 28998 ft 446 kts 92°
2026-04-26 00:16 -9.59997 18.06016 28748 ft 447 kts 92°
2026-04-26 00:16 -9.60124 18.09160 28501 ft 447 kts 92°
2026-04-26 00:16 -9.60252 18.12312 28251 ft 448 kts 92°
2026-04-26 00:16 -9.60379 18.15468 28003 ft 448 kts 92°
2026-04-26 00:17 -9.60505 18.18617 27754 ft 446 kts 92°
2026-04-26 00:17 -9.60631 18.21739 27502 ft 441 kts 92°
2026-04-26 00:17 -9.60754 18.24823 27253 ft 439 kts 92°
2026-04-26 00:17 -9.60876 18.27869 27005 ft 437 kts 92°
2026-04-26 00:18 -9.60998 18.30944 26756 ft 436 kts 92°
2026-04-26 00:18 -9.61120 18.34001 26507 ft 434 kts 92°
2026-04-26 00:18 -9.61241 18.37050 26257 ft 432 kts 92°
2026-04-26 00:18 -9.61361 18.40088 26007 ft 431 kts 92°
2026-04-26 00:19 -9.61481 18.43119 25757 ft 429 kts 92°
2026-04-26 00:19 -9.61600 18.46130 25510 ft 428 kts 92°
2026-04-26 00:19 -9.61719 18.49138 25257 ft 426 kts 92°
2026-04-26 00:19 -9.61836 18.52130 25007 ft 425 kts 92°
2026-04-26 00:20 -9.61953 18.55112 24757 ft 423 kts 92°
2026-04-26 00:20 -9.62062 18.58089 24515 ft 422 kts 92°
2026-04-26 00:20 -9.62168 18.61052 24258 ft 420 kts 92°
2026-04-26 00:20 -9.62274 18.64001 24008 ft 419 kts 92°
2026-04-26 00:21 -9.62379 18.66944 23759 ft 417 kts 92°
2026-04-26 00:21 -9.62483 18.69849 23506 ft 408 kts 92°
2026-04-26 00:21 -9.62584 18.72688 23255 ft 398 kts 92°
2026-04-26 00:21 -9.62683 18.75463 23004 ft 390 kts 92°
2026-04-26 00:22 -9.62779 18.78179 22747 ft 382 kts 92°
2026-04-26 00:22 -9.62874 18.80845 22505 ft 377 kts 92°
2026-04-26 00:22 -9.62967 18.83494 22257 ft 376 kts 92°
2026-04-26 00:22 -9.63061 18.86136 22006 ft 374 kts 92°
2026-04-26 00:23 -9.63153 18.88766 21755 ft 373 kts 92°
2026-04-26 00:23 -9.63245 18.91385 21507 ft 372 kts 92°
2026-04-26 00:23 -9.63337 18.93996 21257 ft 370 kts 92°
2026-04-26 00:23 -9.63428 18.96598 21008 ft 369 kts 92°
2026-04-26 00:24 -9.63518 18.99182 20759 ft 368 kts 92°
2026-04-26 00:24 -9.63608 19.01764 20509 ft 366 kts 92°
2026-04-26 00:24 -9.63698 19.04344 20259 ft 365 kts 92°
2026-04-26 00:24 -9.63786 19.06906 20009 ft 364 kts 92°
2026-04-26 00:25 -9.63874 19.09427 19757 ft 362 kts 92°
2026-04-26 00:25 -9.63961 19.11972 19512 ft 361 kts 92°
2026-04-26 00:25 -9.64049 19.14509 19262 ft 360 kts 92°
2026-04-26 00:25 -9.64137 19.17070 19009 ft 358 kts 92°
2026-04-26 00:26 -9.64222 19.19551 18762 ft 356 kts 92°
2026-04-26 00:26 -9.64307 19.22039 18513 ft 350 kts 92°
2026-04-26 00:26 -9.64391 19.24489 18258 ft 345 kts 92°
2026-04-26 00:26 -9.64374 19.26901 18012 ft 340 kts 84°
2026-04-26 00:27 -9.64163 19.29265 17765 ft 334 kts 85°
2026-04-26 00:27 -9.63977 19.31593 17518 ft 329 kts 85°
2026-04-26 00:27 -9.63804 19.33888 17268 ft 325 kts 85°
2026-04-26 00:27 -9.63639 19.36157 17021 ft 321 kts 86°
2026-04-26 00:28 -9.63478 19.38400 16771 ft 318 kts 86°
2026-04-26 00:28 -9.63321 19.40618 16521 ft 315 kts 86°
2026-04-26 00:28 -9.63166 19.42826 16269 ft 312 kts 86°
2026-04-26 00:28 -9.63012 19.44998 16022 ft 307 kts 86°
2026-04-26 00:29 -9.62861 19.47141 15772 ft 302 kts 86°
2026-04-26 00:29 -9.62712 19.49250 15521 ft 298 kts 86°
2026-04-26 00:29 -9.62566 19.51328 15273 ft 294 kts 86°
2026-04-26 00:29 -9.62421 19.53379 15022 ft 290 kts 86°
2026-04-26 00:30 -9.62276 19.55417 14762 ft 289 kts 86°
2026-04-26 00:30 -9.62133 19.57441 14519 ft 287 kts 86°
2026-04-26 00:30 -9.61991 19.59450 14272 ft 285 kts 86°
2026-04-26 00:30 -9.61849 19.61450 14016 ft 284 kts 86°
2026-04-26 00:31 -9.61708 19.63438 13765 ft 282 kts 86°
2026-04-26 00:31 -9.61567 19.65416 13515 ft 281 kts 86°
2026-04-26 00:31 -9.61427 19.67386 13265 ft 280 kts 86°
2026-04-26 00:31 -9.61288 19.69347 13015 ft 279 kts 86°
2026-04-26 00:32 -9.61148 19.71303 12759 ft 278 kts 86°
2026-04-26 00:32 -9.61010 19.73249 12513 ft 277 kts 86°
2026-04-26 00:32 -9.60733 19.77123 12017 ft 275 kts 86°
2026-04-26 00:33 -9.60596 19.79047 11768 ft 274 kts 86°
2026-04-26 00:33 -9.60458 19.80968 11519 ft 273 kts 86°
2026-04-26 00:33 -9.60321 19.82882 11269 ft 272 kts 86°
2026-04-26 00:33 -9.60185 19.84789 11019 ft 271 kts 86°
2026-04-26 00:34 -9.60049 19.86691 10769 ft 270 kts 86°
2026-04-26 00:34 -9.59913 19.88583 10522 ft 269 kts 86°
2026-04-26 00:34 -9.59778 19.90469 10269 ft 268 kts 86°
2026-04-26 00:34 -9.59643 19.92345 10019 ft 267 kts 86°
2026-04-26 00:35 -9.59510 19.94191 9772 ft 265 kts 86°
2026-04-26 00:35 -9.59375 19.96076 9520 ft 264 kts 86°
2026-04-26 00:35 -9.59243 19.97907 9273 ft 264 kts 86°
2026-04-26 00:35 -9.59108 19.99780 9030 ft 262 kts 86°
2026-04-26 00:36 -9.58977 20.01593 8784 ft 260 kts 86°
2026-04-26 00:36 -9.58847 20.03395 8636 ft 253 kts 86°
2026-04-26 00:36 -9.58721 20.05135 8548 ft 241 kts 86°
2026-04-26 00:36 -9.58602 20.06791 8469 ft 231 kts 86°
2026-04-26 00:37 -9.58487 20.08378 8346 ft 221 kts 86°
2026-04-26 00:37 -9.58377 20.09901 8196 ft 209 kts 86°
2026-04-26 00:37 -9.58273 20.11325 8003 ft 203 kts 86°
2026-04-26 00:37 -9.58172 20.12729 7807 ft 196 kts 86°
2026-04-26 00:38 -9.58074 20.14077 7602 ft 188 kts 86°
2026-04-26 00:38 -9.57981 20.15360 7440 ft 177 kts 85°
2026-04-26 00:38 -9.57891 20.16604 7286 ft 177 kts 85°
2026-04-26 00:38 -9.57801 20.17844 7111 ft 176 kts 85°
2026-04-26 00:39 -9.57711 20.19080 6935 ft 175 kts 86°
2026-04-26 00:39 -9.57624 20.20282 6770 ft 167 kts 86°
2026-04-26 00:39 -9.57539 20.21444 6602 ft 164 kts 86°
2026-04-26 00:39 -9.57456 20.22596 6417 ft 163 kts 86°
2026-04-26 00:40 -9.57373 20.23742 6240 ft 163 kts 86°
2026-04-26 00:40 -9.57290 20.24885 6066 ft 163 kts 86°
2026-04-26 00:40 -9.57206 20.26027 5892 ft 162 kts 85°
2026-04-26 00:40 -9.57124 20.27166 5715 ft 162 kts 85°
2026-04-26 00:41 -9.57075 20.28304 5530 ft 162 kts 97°
2026-04-26 00:41 -9.57539 20.29310 5319 ft 159 kts 127°
2026-04-26 00:41 -9.58222 20.30200 5180 ft 160 kts 128°
2026-04-26 00:41 -9.58886 20.31088 5091 ft 155 kts 127°
2026-04-26 00:42 -9.59543 20.31929 4936 ft 150 kts 129°
2026-04-26 00:42 -9.60205 20.32737 4838 ft 149 kts 129°
2026-04-26 00:42 -9.60865 20.33543 4833 ft 149 kts 129°
2026-04-26 00:42 -9.61527 20.34350 4822 ft 149 kts 129°
2026-04-26 00:43 -9.62189 20.35157 4721 ft 149 kts 130°
2026-04-26 00:43 -9.62858 20.35954 4605 ft 148 kts 130°
2026-04-26 00:43 -9.63528 20.36749 4497 ft 148 kts 130°
2026-04-26 00:43 -9.64194 20.37542 4372 ft 148 kts 130°
2026-04-26 00:44 -9.64860 20.38334 4271 ft 148 kts 130°
2026-04-26 00:44 -9.65526 20.39126 4169 ft 147 kts 130°
2026-04-26 00:44 -9.66189 20.39916 4071 ft 147 kts 130°
2026-04-26 00:44 -9.66854 20.40707 3948 ft 147 kts 130°
2026-04-26 00:45 -9.67508 20.41505 3731 ft 147 kts 129°
2026-04-26 00:45 -9.67934 20.42029 3615 ft 143 kts 130°
2026-04-26 00:45 -9.68500 20.42704 3602 ft 8 kts 150°
2026-04-26 00:45 -9.68566 20.42700 3603 ft 9 kts 224°
2026-04-26 00:46 -9.68611 20.42656 3603 ft 9 kts 224°
2026-04-26 00:46 -9.68660 20.42608 3603 ft 10 kts 223°
2026-04-26 00:46 -9.68714 20.42557 3603 ft 11 kts 223°
2026-04-26 00:46 -9.68773 20.42500 3603 ft 12 kts 223°
2026-04-26 00:47 -9.68826 20.42435 3603 ft 11 kts 258°
2026-04-26 00:47 -9.68830 20.42412 3603 ft 0 kts 260°